Airport Information

KCVO - Corvallis Muni Airport

KCVO 241456Z AUTO 02007KT 10SM CLR 14/07 A3010 RMK AO2 SLP192 T01440072 56005


  • General Information

  • Coordinates: N 44°30'24"/ W 123°17'29"
  • Location: N/A
  • Surveyed Elevation: 250 MSL

Operations

Flow Name Active Runways Conditions

Green background denotes normal operations.


Common Frequencies

Callsign Frequency Position Name

More at the Document Center


Charts